COSMOS 2251 DEB, 33764

Orbit data source: Space-Track

COSMOS 2251 DEB, 33764 is space debris in LEO originally from a launch on Wed, 16 Jun 1993 UTC launched from the Plesetsk Missile And Space Complex (PKMTR). The debris from Iridium 33, an American commercial communications satellite, has been tracked extensively since its accidental collision with the defunct Russian satellite Cosmos 2251 in 2009. This event, occurring at high speed in low Earth orbit (LEO), generated thousands of pieces of space debris, significantly increasing the risk of further collisions. The Iridium 33 debris cloud has impacted space traffic management and orbital debris mitigation strategies, making it a subject of ongoing study in space situational awareness.

Loading next visibility...
Identifier
33764, 1993-036M
Orbit
LEO
Country
Flag of CISCIS
Related business
Manufacturer
Unknown
Mission
Spacecraft
Bus & Motor
Unknown
Mass
Unknown
Launch date (UTC)
1993-06-16 (33 years ago)
Launch vehicle
Unknown
Launch site
Plesetsk Missile And Space Complex (PKMTR)
Object type
Payload
Rocket body
Debris
Shape & HBR
Unknown shape, 0.4 m
Radar Cross Section
Medium (>0.1 m² and <1 m²)

Expand to show TLE details & history
Last TLE update: 7 hours ago

TLE from 7 hours ago
0 COSMOS 2251 DEB
1 33764U 93036M   26125.12797412  .00000688  00000-0  22726-3 0  9997
2 33764  74.0351   7.8165 0022476 295.2457 217.1977 14.39812442902202
Epoch: 2026-05-05T03:04Z
TLE epoch observation values (Epoch: 2026-05-05T03:04:16.963Z)
Latitude
26.60017°
Longitude
-89.45385°
Altitude
774.843 km
Speed
7.462 km/s
True Right ascension
11h 58m 29s
True Declination
26° 27' 47"
Sunlit
Object was in full shadow at epoch
Visualization orbit readout
Latitude
Unknown
Longitude
Unknown
Altitude
Unknown
Speed
Unknown
Apparent Right ascension
Unknown
Apparent Declination
Unknown
Sunlit
N/A
Visualization observer readout
Local Sidereal Time
18:06:06
Azimuth
Unknown
Elevation
Unknown
Doppler factor
Unknown
Orbital elements
Apogee altitude
772.774 km
Perigee altitude
740.702 km
Semi-major axis
7,134.875 km
Eccentricity
0.00225
Inclination
74.0351°
RAAN
7.8165°
Arg. of periapsis
295.2457°
True anomaly
217.04234°
Mean anomaly
217.1977°
Eccentric anomaly
217.11998°
Mean motion
3.60134 °/min
Orbital period
99.96 mins
BSTAR
0.00022726
Loading maneuver chart data...
Computing Atmospheric mass density...

Documentation

Showing up to 5 results
|